AQUA

Last updated on Fri Feb 06 2026 00:02:16 GMT+0000 (Coordinated Universal Time)

1 27424U 02022A 26036.72894748 .00001714 00000+0 35252-3 0 9993 2 27424 98.4119 3.5266 0001613 55.4228 43.7208 14.61897451264060
UTC large
Height (km)
Speed (km/s)
/
Latitude / Longitude
Inclination (degrees)
Orbital Period (minutes)
Azimuth
Elevation
Range (km)
Doppler Factor

Next 0 passes for location: London (51.5072 / 0.1276)

Sorry there are no passes over London.